BREEZE-M DEB, 37204

Orbit data source: Space-Track

BREEZE-M DEB, 37204 is space debris in HEO originally from a launch on Fri, 14 Mar 2008 UTC launched from the Tyuratam Missile And Space Complex (TTMTR). Debris objects in space refer to the collection of defunct objects orbiting the Earth. Examples of debris include non-operational satellites, rocket bodies, and fragments generated from explosions, collisions, or faulty payload assembly.

Loading next visibility...
Identifier
37204, 2008-011J
Orbit
HEO
Country
Flag of CISCIS
Related business
Manufacturer
Unknown
Mission
Spacecraft
Bus & Motor
Unknown
Mass
Unknown
Launch date (UTC)
2008-03-14 (18 years ago)
Launch vehicle
Unknown
Launch site
Tyuratam Missile And Space Complex (TTMTR)
Object type
Payload
Rocket body
Debris
Shape & HBR
Unknown shape, 0.4 m
Radar Cross Section
Medium (>0.1 m² and <1 m²)

Expand to show TLE details & history
Last TLE update: 2 weeks ago

TLE from 2 weeks ago
0 BREEZE-M DEB
1 37204U 08011J   26160.35858519  .00000155  00000-0  98721-2 0  9995
2 37204  49.2931  32.6176 6383070 201.1116 356.3811  3.06524409 23634
Epoch: 2026-06-09T08:36Z
TLE epoch observation values (Epoch: 2026-06-09T08:36:21.760Z)
Latitude
0.2306°
Longitude
-174.38801°
Altitude
1,058.38 km
Speed
9.343 km/s
True Right ascension
14h 09m 44s
True Declination
0° 13' 45"
Sunlit
Object was in full shadow at epoch
Visualization orbit readout
Latitude
Unknown
Longitude
Unknown
Altitude
Unknown
Speed
Unknown
Apparent Right ascension
Unknown
Apparent Declination
Unknown
Sunlit
N/A
Visualization observer readout
Local Sidereal Time
00:39:49
Azimuth
Unknown
Elevation
Unknown
Doppler factor
Unknown
Orbital elements
Apogee altitude
26,418.939 km
Perigee altitude
862.553 km
Semi-major axis
20,018.883 km
Eccentricity
0.63831
Inclination
49.2931°
RAAN
32.6176°
Arg. of periapsis
201.1116°
True anomaly
339.07431°
Mean anomaly
356.3811°
Eccentric anomaly
350.08184°
Mean motion
0.76627 °/min
Orbital period
469.81 mins
BSTAR
0.0098721
Loading maneuver chart data...
Computing Atmospheric mass density...
Loading historical data...
Loading historical data...
Loading historical data...
Loading historical data...
Loading historical data...
Loading historical data...
Loading historical data...

Documentation

Showing up to 5 results
|